GW6119 Weather Reports


time (UTC)temp
C
wind
direction
speed
KPH
gust
KPH
rain 1hr
cm
rain 24hr
cm
rain mn
cm
humidity
%
barometer
mb
20260508002037 15 275 3.2 9.7 0.00 0.00 0.00 42 1011.0
20260508001532 15 222 4.8 9.7 0.00 0.00 0.00 41 1010.8
20260508001029 15 226 4.8 9.7 0.00 0.00 0.00 41 1010.8
20260508000525 15 261 4.8 11.3 0.00 0.00 0.00 40 1010.7
20260508000023 15 273 9.7 11.3 0.00 0.00 0.00 40 1010.7
20260507235519 16 215 4.8 11.3 0.00 0.00 0.00 40 1010.3
20260507235017 16 261 3.2 12.9 0.00 0.00 0.00 40 1010.5
20260507234513 16 256 4.8 12.9 0.00 0.00 0.00 40 1010.3
20260507234009 16 187 3.2 4.8 0.00 0.00 0.00 41 1010.3
20260507233506 16 244 6.4 11.3 0.00 0.00 0.00 41 1010.2
20260507233005 16 198 3.2 12.9 0.00 0.00 0.00 40 1010.2
20260507232500 17 194 3.2 12.9 0.00 0.00 0.00 40 1010.0
20260507231958 17 227 3.2 6.4 0.00 0.00 0.00 39 1010.1
20260507231454 17 195 1.6 6.4 0.00 0.00 0.00 40 1009.6
20260507230951 17 220 3.2 12.9 0.00 0.00 0.00 41 1009.7
20260507230448 17 248 9.7 12.9 0.00 0.00 0.00 42 1009.7
20260507225944 17 238 9.7 11.3 0.00 0.00 0.00 61 1009.7
20260507225440 17 249 6.4 6.4 0.00 0.00 0.00 53 1009.6
20260507224936 16 238 6.4 6.4 0.00 0.00 0.00 64 1009.2
20260507224432 16 223 3.2 6.4 0.00 0.00 0.00 65 1009.3
20260507223929 16 180 0.0 3.2 0.00 0.00 0.00 67 1009.2
20260507223425 16 221 1.6 1.6 0.00 0.00 0.00 65 1009.0
20260507222922 16 183 0.0 0.0 0.00 0.00 0.00 66 1009.2
20260507222419 16 243 1.6 6.4 0.00 0.00 0.00 65 1009.2
20260507221916 16 246 6.4 9.7 0.00 0.00 0.00 64 1009.0
20260507221412 17 244 6.4 6.4 0.00 0.00 0.00 63 1008.8
20260507220908 17 236 4.8 9.7 0.00 0.00 0.00 61 1008.8
20260507220406 18 249 6.4 9.7 0.00 0.00 0.00 56 1008.7
20260507215902 18 232 3.2 9.7 0.00 0.00 0.00 56 1008.6
20260507215359 19 249 6.4 9.7 0.00 0.00 0.00 52 1008.6
20260507214856 20 228 9.7 11.3 0.00 0.00 0.00 52 1008.5
20260507214354 20 224 3.2 4.8 0.00 0.00 0.00 53 1008.6
20260507213849 19 194 4.8 6.4 0.00 0.00 0.00 56 1008.6
20260507213346 18 224 4.8 9.7 0.00 0.00 0.00 55 1008.6
20260507212843 18 185 6.4 6.4 0.00 0.00 0.00 59 1008.6
20260507212339 17 229 8.0 9.7 0.00 0.00 0.00 58 1008.6
20260507211836 17 265 4.8 6.4 0.00 0.00 0.00 59 1008.5
20260507211332 18 243 4.8 9.7 0.00 0.00 0.00 56 1008.6
20260507210829 18 238 4.8 6.4 0.00 0.00 0.00 54 1008.6
20260507210327 18 177 6.4 9.7 0.00 0.00 0.00 58 1008.6
20260507205823 19 251 8.0 11.3 0.00 0.00 0.00 56 1008.5
20260507205320 18 138 1.6 4.8 0.00 0.00 0.00 56 1008.5
20260507204816 19 251 6.4 6.4 0.00 0.00 0.00 56 1008.4
20260507204313 19 201 3.2 9.7 0.00 0.00 0.00 57 1008.7
20260507203811 18 178 0.0 1.6 0.00 0.00 0.00 58 1008.5
20260507203309 18 226 6.4 9.7 0.00 0.00 0.00 56 1008.5
20260507202805 19 187 1.6 6.4 0.00 0.00 0.00 54 1008.5
20260507202301 18 200 4.8 11.3 0.00 0.00 0.00 57 1008.8
20260507201756 18 240 6.4 11.3 0.00 0.00 0.00 57 1008.6
20260507201252 19 194 8.0 11.3 0.00 0.00 0.00 55 1008.6
20260507200749 19 88 1.6 12.9 0.00 0.00 0.00 55 1008.9
20260507200245 18 186 4.8 11.3 0.00 0.00 0.00 58 1008.8
20260507195741 20 220 3.2 11.3 0.00 0.00 0.00 56 1009.0
20260507195239 19 174 0.0 3.2 0.00 0.00 0.00 54 1008.9
20260507194736 18 201 3.2 6.4 0.00 0.00 0.00 58 1009.0
20260507194232 18 129 3.2 11.3 0.00 0.00 0.00 52 1009.0
20260507193729 18 189 6.4 9.7 0.00 0.00 0.00 53 1009.2
20260507193225 18 172 3.2 9.7 0.00 0.00 0.00 53 1009.2
20260507192722 18 215 4.8 9.7 0.00 0.00 0.00 57 1009.4
20260507192219 18 204 1.6 4.8 0.00 0.00 0.00 52 1009.5
20260507191714 17 186 3.2 6.4 0.00 0.00 0.00 56 1009.7
20260507191212 17 271 4.8 12.9 0.00 0.00 0.00 56 1009.8
20260507190708 18 255 6.4 9.7 0.00 0.00 0.00 60 1009.6
20260507190207 18 179 3.2 9.7 0.00 0.00 0.00 53 1009.7
20260507185705 18 161 4.8 6.4 0.00 0.00 0.00 53 1009.8
20260507185202 18 238 6.4 11.3 0.00 0.00 0.00 53 1009.7
20260507184659 18 171 3.2 6.4 0.00 0.00 0.00 53 1009.7
20260507184157 17 179 1.6 3.2 0.00 0.00 0.00 57 1009.7
20260507183653 17 152 4.8 9.7 0.00 0.00 0.00 54 1009.8
20260507183150 17 134 0.0 4.8 0.00 0.00 0.00 59 1009.8
20260507182647 16 211 0.0 1.6 0.00 0.00 0.00 57 1009.9
20260507182143 17 205 1.6 3.2 0.00 0.00 0.00 54 1009.8
20260507181639 17 153 3.2 9.7 0.00 0.00 0.00 53 1010.0
20260507181136 17 155 1.6 1.6 0.00 0.00 0.00 56 1010.0
20260507180632 17 121 1.6 9.7 0.00 0.00 0.00 58 1010.2
20260507180130 17 53 6.4 11.3 0.00 0.00 0.00 54 1010.0
20260507175625 17 153 6.4 9.7 0.00 0.00 0.00 57 1010.2
20260507175123 16 226 3.2 4.8 0.00 0.00 0.00 56 1010.2
20260507174620 15 65 0.0 1.6 0.00 0.00 0.00 59 1010.5
20260507174118 15 162 6.4 6.4 0.00 0.00 0.00 59 1010.8
20260507173615 15 195 1.6 9.7 0.00 0.00 0.00 61 1010.6
20260507173112 15 184 1.6 3.2 0.00 0.00 0.00 59 1010.6
20260507172607 15 160 1.6 4.8 0.00 0.00 0.00 59 1010.7
20260507172106 15 167 1.6 4.8 0.00 0.00 0.00 58 1010.7
20260507171600 15 157 1.6 6.4 0.00 0.00 0.00 63 1010.8
20260507171057 15 133 3.2 4.8 0.00 0.00 0.00 64 1011.1
20260507170554 15 82 3.2 4.8 0.00 0.00 0.00 63 1011.2
20260507170051 14 42 4.8 9.7 0.00 0.00 0.00 65 1011.1
20260507165547 14 147 4.8 9.7 0.00 0.00 0.00 64 1011.4
20260507165043 14 133 8.0 11.3 0.00 0.00 0.00 64 1011.3
20260507164539 14 49 8.0 9.7 0.00 0.00 0.00 63 1011.4
20260507164037 15 28 3.2 6.4 0.00 0.00 0.00 65 1011.4
20260507163534 15 30 1.6 4.8 0.00 0.00 0.00 63 1011.5
20260507163032 14 102 0.0 3.2 0.00 0.00 0.00 64 1011.6
20260507162532 14 166 0.0 6.4 0.00 0.00 0.00 61 1011.6
20260507162029 14 91 3.2 6.4 0.00 0.00 0.00 67 1011.6
20260507161526 14 51 3.2 6.4 0.00 0.00 0.00 65 1011.9
20260507161023 13 101 6.4 9.7 0.00 0.00 0.00 66 1012.0
20260507160519 13 62 3.2 9.7 0.00 0.00 0.00 66 1012.0
20260507160015 13 24 6.4 11.3 0.00 0.00 0.00 64 1012.1
20260507155510 13 103 4.8 6.4 0.00 0.00 0.00 63 1012.1
20260507155008 13 85 3.2 6.4 0.00 0.00 0.00 63 1012.4
20260507154504 14 10 4.8 11.3 0.00 0.00 0.00 62 1012.3
20260507154001 13 338 8.0 9.7 0.00 0.00 0.00 63 1012.3
20260507153458 13 5 11.3 12.9 0.00 0.00 0.00 62 1012.3
20260507152954 14 314 3.2 12.9 0.00 0.00 0.00 63 1012.4
20260507152451 13 3 4.8 6.4 0.00 0.00 0.00 66 1012.3
20260507151947 13 21 4.8 11.3 0.00 0.00 0.00 64 1012.5
20260507151443 13 359 6.4 11.3 0.00 0.00 0.00 67 1012.5
20260507150940 12 69 4.8 6.4 0.00 0.00 0.00 69 1012.6
20260507150437 12 280 4.8 11.3 0.00 0.00 0.00 68 1012.7
20260507145933 12 35 1.6 6.4 0.00 0.00 0.00 69 1012.8
20260507145429 12 77 4.8 11.3 0.00 0.00 0.00 68 1012.6
20260507144926 12 59 1.6 4.8 0.00 0.00 0.00 70 1012.8
20260507144423 12 218 4.8 9.7 0.00 0.00 0.00 69 1012.8
20260507143920 12 356 8.0 9.7 0.00 0.00 0.00 71 1012.9
20260507143418 12 55 3.2 6.4 0.00 0.00 0.00 72 1012.9
20260507142914 11 34 4.8 9.7 0.00 0.00 0.00 74 1012.9
20260507142410 11 10 1.6 6.4 0.00 0.00 0.00 72 1013.4
20260507141907 11 290 8.0 11.3 0.00 0.00 0.00 73 1013.3
20260507141403 11 86 1.6 3.2 0.00 0.00 0.00 74 1013.3
20260507140900 11 160 1.6 3.2 0.00 0.00 0.00 74 1013.2
20260507140357 11 2 4.8 9.7 0.00 0.00 0.00 75 1013.3
20260507135855 11 358 4.8 6.4 0.00 0.00 0.00 77 1013.3
20260507135351 11 14 3.2 6.4 0.00 0.00 0.00 78 1013.1
20260507134849 11 5 4.8 11.3 0.00 0.00 0.00 78 1013.3
20260507134345 11 35 8.0 11.3 0.00 0.00 0.00 78 1013.3
20260507133841 11 142 0.0 3.2 0.00 0.00 0.00 79 1013.4
20260507133336 11 59 3.2 3.2 0.00 0.00 0.00 79 1013.4
20260507132835 11 40 3.2 3.2 0.00 0.00 0.00 78 1013.6
20260507132331 11 5 4.8 6.4 0.00 0.00 0.00 78 1013.2
20260507131829 11 4 8.0 11.3 0.00 0.00 0.00 77 1013.4
20260507131325 11 118 1.6 3.2 0.00 0.00 0.00 78 1013.5
20260507130822 11 13 3.2 6.4 0.00 0.00 0.00 77 1013.6
20260507130319 11 348 3.2 4.8 0.00 0.00 0.00 79 1013.6
20260507125818 11 8 6.4 6.4 0.00 0.00 0.00 79 1013.7
20260507125315 11 64 1.6 4.8 0.00 0.00 0.00 79 1013.5
20260507124812 11 65 3.2 3.2 0.00 0.00 0.00 79 1013.5
20260507124308 11 135 0.0 1.6 0.00 0.00 0.00 80 1013.4
20260507123807 11 122 0.0 1.6 0.00 0.00 0.00 80 1013.5
20260507123304 11 100 3.2 6.4 0.00 0.00 0.00 79 1013.5
20260507122800 11 75 3.2 9.7 0.00 0.00 0.00 79 1013.2
20260507122255 11 45 3.2 6.4 0.00 0.00 0.00 80 1013.3
20260507121751 11 124 4.8 6.4 0.00 0.00 0.00 79 1013.4
20260507121247 11 90 3.2 4.8 0.00 0.00 0.00 82 1013.3
20260507120744 11 85 4.8 4.8 0.00 0.00 0.00 81 1013.0
20260507120241 11 142 1.6 3.2 0.00 0.00 0.00 82 1012.8
20260507115737 11 110 1.6 3.2 0.00 0.00 0.00 81 1013.0
20260507115233 11 149 1.6 4.8 0.00 0.00 0.00 80 1013.1
20260507114728 11 134 1.6 3.2 0.00 0.00 0.00 82 1013.0
20260507114226 11 148 1.6 3.2 0.00 0.00 0.00 82 1013.0
20260507113724 11 109 0.0 1.6 0.00 0.00 0.00 82 1013.1
20260507113220 11 146 0.0 1.6 0.00 0.00 0.00 82 1012.8
20260507112718 11 49 3.2 4.8 0.00 0.00 0.00 82 1013.0
20260507112215 11 140 1.6 3.2 0.00 0.00 0.00 80 1012.9
20260507111712 11 61 3.2 4.8 0.00 0.00 0.00 79 1012.7
20260507111209 11 140 0.0 1.6 0.00 0.00 0.00 80 1012.7
20260507110705 11 9 1.6 4.8 0.00 0.00 0.00 79 1012.6
20260507110202 11 70 1.6 1.6 0.00 0.00 0.00 84 1012.3
20260507105659 11 130 1.6 3.2 0.00 0.00 0.00 83 1012.4
20260507105154 10 104 1.6 1.6 0.00 0.00 0.00 84 1012.6
20260507104652 10 248 0.0 3.2 0.00 0.00 0.00 86 1012.5
20260507104148 10 123 1.6 3.2 0.00 0.00 0.00 86 1012.4
20260507103644 10 116 1.6 3.2 0.00 0.00 0.00 86 1012.5
20260507103141 10 110 1.6 3.2 0.00 0.00 0.00 86 1012.3
20260507102637 10 147 0.0 1.6 0.00 0.00 0.00 85 1012.5
20260507102134 11 332 3.2 3.2 0.00 0.00 0.00 85 1012.7
20260507101630 10 153 0.0 0.0 0.00 0.00 0.00 85 1012.4
20260507101126 11 144 0.0 0.0 0.00 0.00 0.00 84 1012.7
20260507100623 11 134 1.6 3.2 0.00 0.00 0.00 82 1012.6
20260507100121 11 155 0.0 1.6 0.00 0.00 0.00 82 1012.4
20260507095619 11 155 0.0 4.8 0.00 0.00 0.00 82 1012.5
20260507095115 11 90 1.6 3.2 0.00 0.00 0.00 83 1012.5
20260507094611 11 108 1.6 3.2 0.00 0.00 0.00 84 1012.3
20260507094109 11 66 3.2 3.2 0.00 0.00 0.00 83 1012.2
20260507093606 11 119 1.6 3.2 0.00 0.00 0.00 84 1012.3
20260507093105 11 138 1.6 3.2 0.00 0.00 0.00 81 1012.2
20260507092601 11 126 1.6 6.4 0.00 0.00 0.00 81 1012.3
20260507092057 11 113 3.2 4.8 0.00 0.00 0.00 81 1012.2
20260507091554 11 61 1.6 3.2 0.00 0.00 0.00 82 1012.3
20260507091050 11 94 1.6 3.2 0.00 0.00 0.00 82 1012.4
20260507090546 11 109 3.2 6.4 0.00 0.00 0.00 81 1012.2
20260507090043 11 170 3.2 4.8 0.00 0.00 0.00 82 1012.1
20260507085540 11 84 3.2 3.2 0.00 0.00 0.00 83 1012.2
20260507085037 11 65 3.2 3.2 0.00 0.00 0.00 83 1012.0
20260507084533 11 46 3.2 3.2 0.00 0.00 0.00 84 1012.0
20260507084031 11 167 1.6 4.8 0.00 0.00 0.00 83 1012.0
20260507083527 11 35 3.2 4.8 0.00 0.00 0.00 83 1011.7
20260507083024 11 106 1.6 3.2 0.00 0.00 0.00 85 1012.0
20260507082520 11 137 0.0 4.8 0.00 0.00 0.00 85 1012.0
20260507082016 11 52 6.4 6.4 0.00 0.00 0.00 85 1012.1
20260507081513 11 51 4.8 4.8 0.00 0.00 0.00 85 1012.3
20260507081010 11 117 1.6 4.8 0.00 0.00 0.00 85 1012.3
20260507080506 11 115 1.6 4.8 0.00 0.00 0.00 85 1012.4
20260507080001 11 92 1.6 4.8 0.00 0.00 0.00 85 1012.5
20260507075457 11 13 3.2 9.7 0.00 0.00 0.00 85 1012.1
20260507074954 11 93 1.6 4.8 0.00 0.00 0.00 85 1012.1
20260507074451 11 89 3.2 4.8 0.00 0.00 0.00 86 1012.2
20260507073949 11 71 1.6 9.7 0.00 0.00 0.00 85 1012.2
20260507073445 11 173 1.6 9.7 0.00 0.00 0.00 85 1012.2
20260507072942 12 33 8.0 9.7 0.00 0.00 0.00 86 1011.7
20260507072439 12 60 3.2 4.8 0.00 0.00 0.00 86 1012.0
20260507071937 12 70 3.2 3.2 0.00 0.00 0.00 87 1011.5
20260507071434 12 12 4.8 9.7 0.00 0.00 0.00 86 1011.5
20260507070930 12 97 6.4 12.9 0.00 0.00 0.00 86 1011.4
20260507070428 12 32 4.8 11.3 0.00 0.00 0.00 86 1011.6
20260507065924 12 62 3.2 12.9 0.00 0.00 0.00 89 1011.5
20260507065421 12 104 1.6 3.2 0.00 0.00 0.00 90 1011.6
20260507064918 12 99 3.2 9.7 0.00 0.00 0.00 90 1011.6
20260507064416 12 106 1.6 4.8 0.00 0.00 0.00 90 1011.4
20260507063914 12 78 3.2 6.4 0.00 0.00 0.00 90 1011.5
20260507063411 12 38 4.8 12.9 0.00 0.00 0.00 90 1011.9
20260507062908 12 54 4.8 9.7 0.00 0.00 0.00 90 1011.5
20260507062405 12 65 3.2 9.7 0.00 0.00 0.00 90 1011.7
20260507061902 12 62 3.2 9.7 0.00 0.00 0.00 90 1011.6
20260507061400 13 141 1.6 6.4 0.00 0.00 0.00 90 1011.5
20260507060858 13 38 3.2 9.7 0.00 0.00 0.00 90 1011.6
20260507060355 13 71 6.4 9.7 0.00 0.00 0.00 90 1011.5
20260507055852 13 53 3.2 4.8 0.00 0.00 0.00 91 1012.1
20260507055346 13 74 3.2 9.7 0.00 0.00 0.00 90 1011.7
20260507054844 13 83 3.2 6.4 0.00 0.00 0.00 90 1011.7
20260507054340 13 76 4.8 9.7 0.00 0.00 0.00 89 1012.0
20260507053837 13 60 4.8 6.4 0.00 0.00 0.00 90 1012.0
20260507053335 13 116 3.2 6.4 0.00 0.00 0.00 90 1012.1
20260507052833 13 92 1.6 9.7 0.00 0.00 0.00 90 1011.6
20260507052330 13 91 3.2 3.2 0.00 0.00 0.00 91 1011.2
20260507051828 13 90 3.2 6.4 0.00 0.00 0.00 91 1011.2
20260507051325 13 79 3.2 6.4 0.00 0.00 0.00 92 1011.4
20260507050822 13 30 1.6 4.8 0.00 0.00 0.00 92 1011.6
20260507050318 13 37 3.2 4.8 0.00 0.00 0.00 92 1011.5
20260507045815 13 113 1.6 4.8 0.00 0.00 0.00 91 1011.2
20260507045312 13 159 1.6 6.4 0.00 0.00 0.00 91 1011.4
20260507044809 14 11 6.4 6.4 0.00 0.00 0.00 92 1011.0
20260507044305 14 40 3.2 4.8 0.00 0.00 0.00 92 1010.8
20260507043801 14 52 6.4 6.4 0.00 0.00 0.00 92 1011.2
20260507043258 15 0 4.8 9.7 0.00 0.00 0.00 92 1010.8
20260507042754 15 333 6.4 9.7 0.00 0.00 0.00 92 1010.7
20260507042249 15 347 6.4 12.9 0.00 0.00 0.00 92 1010.4
20260507041747 15 53 4.8 12.9 0.00 0.00 0.00 92 1009.7
20260507041243 15 94 3.2 4.8 0.00 0.00 0.00 92 1010.4
20260507040741 15 183 3.2 9.7 0.00 0.00 0.00 92 1010.5
20260507040237 15 74 9.7 12.9 0.00 0.00 0.00 93 1010.5
20260507035733 15 119 4.8 6.4 0.00 0.53 0.53 94 1011.1
20260507035228 15 153 0.0 0.0 0.13 0.53 0.53 94 1011.7
20260507034726 15 155 0.0 4.8 0.61 0.53 0.53 95 1011.5
20260507034223 15 97 3.2 3.2 0.61 0.51 0.51 95 1011.3
20260507033721 15 157 0.0 1.6 0.13 0.43 0.43 95 1011.7
20260507033218 15 163 0.0 0.0 0.00 0.41 0.41 95 1011.9
20260507032716 15 157 0.0 3.2 0.00 0.41 0.41 94 1011.3
20260507032211 15 141 0.0 1.6 0.00 0.41 0.41 94 1011.3
20260507031708 15 88 3.2 3.2 0.00 0.41 0.41 94 1011.2
20260507031205 15 105 1.6 3.2 0.00 0.41 0.41 94 1010.9
20260507030702 15 144 1.6 1.6 0.00 0.41 0.41 94 1011.0
20260507030200 15 134 0.0 1.6 0.00 0.41 0.41 94 1011.0
20260507025656 15 141 1.6 3.2 0.00 0.41 0.41 94 1010.7
20260507025153 16 138 0.0 1.6 0.00 0.41 0.41 93 1011.1
20260507024652 16 158 0.0 0.0 0.00 0.41 0.41 93 1011.2
20260507024149 16 190 1.6 1.6 0.18 0.41 0.41 92 1011.2
20260507023644 16 122 1.6 1.6 0.18 0.41 0.41 92 1011.1
20260507023142 16 184 0.0 1.6 0.00 0.38 0.38 92 1011.1
20260507022638 16 146 0.0 3.2 0.00 0.38 0.38 92 1010.7
20260507022134 16 211 1.6 1.6 0.00 0.38 0.38 91 1010.8
20260507021630 16 136 0.0 1.6 0.13 0.38 0.38 90 1010.6
20260507021126 16 141 0.0 3.2 0.13 0.38 0.38 89 1010.4
20260507020625 16 131 1.6 4.8 0.00 0.36 0.36 90 1010.1
20260507020120 16 167 1.6 1.6 0.00 0.36 0.36 88 1010.5
20260507015619 16 141 1.6 1.6 0.00 0.36 0.36 88 1010.6
20260507015116 16 129 0.0 4.8 0.00 0.36 0.36 88 1010.7
20260507014612 16 1 4.8 6.4 0.00 0.36 0.36 90 1010.9
20260507014108 16 128 0.0 1.6 0.00 0.36 0.36 90 1010.7
20260507013605 16 84 3.2 4.8 0.00 0.36 0.36 90 1010.6
20260507013102 16 123 1.6 3.2 0.00 0.36 0.36 90 1010.2
20260507012600 17 156 1.6 6.4 0.00 0.36 0.36 89 1010.0
20260507012055 17 63 3.2 4.8 0.00 0.36 0.36 89 1009.8
20260507011553 17 11 1.6 4.8 0.00 0.36 0.36 90 1009.9
20260507011049 17 120 3.2 3.2 0.00 0.36 0.36 90 1009.7
20260507010544 16 53 3.2 3.2 0.00 0.36 0.36 91 1009.9
20260507010040 17 148 0.0 3.2 0.00 0.36 0.36 89 1010.4
20260507005538 17 118 1.6 3.2 0.00 0.36 0.36 87 1010.1
20260507005034 17 137 0.0 3.2 0.00 0.36 0.36 88 1010.3
20260507004531 17 110 1.6 1.6 0.00 0.36 0.36 89 1010.5
20260507004029 17 194 0.0 3.2 0.00 0.36 0.36 89 1010.3
20260507003524 17 148 0.0 3.2 0.00 0.36 0.36 87 1010.7
20260507003019 17 148 1.6 4.8 0.00 0.36 0.36 85 1010.6